Location: Sankt+Gallen
(47.4262°N, 9.3755°E)
Time: 03:50:30
(UTC+01:00)

ACS3 Solar Sail - Visible Passes

Search period start: 18 February 2026 00:00
Search period end: 28 February 2026 00:00
Orbit: 898 x 968 km, 97.2° (Epoch: 17 February)

Date Brightness Start Highest point End Pass type
(mag) Time Alt. Az. Time Alt. Az. Time Alt. Az.
18 Feb 4.4 02:44:32 10° N 02:44:42 11° N 02:44:42 11° N visible
19 Feb 4.3 02:56:55 10° N 02:57:15 12° N 02:57:15 12° N visible
20 Feb 4.2 03:09:17 10° N 03:09:46 12° N 03:09:46 12° N visible
21 Feb 4.1 03:21:40 10° N 03:22:14 13° N 03:22:14 13° N visible
22 Feb 4.0 03:34:03 10° N 03:34:41 13° N 03:34:41 13° N visible
23 Feb 4.5 02:03:12 10° NNE 02:03:20 11° NNE 02:03:20 11° NNE visible
23 Feb 4.0 03:46:26 10° N 03:47:04 13° NNW 03:47:04 13° NNW visible
24 Feb 4.3 02:15:16 10° NNE 02:15:43 12° NNE 02:15:43 12° NNE visible
24 Feb 3.9 03:58:52 10° NNW 03:59:27 12° NNW 03:59:27 12° NNW visible
25 Feb 4.2 02:27:21 10° NNE 02:28:02 14° NNE 02:28:02 14° NNE visible
25 Feb 3.9 04:11:21 10° NNW 04:11:47 11° NNW 04:11:47 11° NNW visible
26 Feb 4.1 02:39:26 10° N 02:40:20 15° N 02:40:20 15° N visible
26 Feb 3.9 04:23:57 10° NNW 04:24:04 10° NNW 04:24:04 10° NNW visible
27 Feb 4.0 02:51:31 10° N 02:52:35 16° N 02:52:35 16° N visible
